Regional Weather Roundup
Issued by NWS Bismarck, ND

Home | Current Version | Previous Version | Text Only | Print | Product List | Glossary On
Versions: 1 2 3 4 5 6 7 8 9 10 11 12 13 14 15 16 17 18 19 20 21 22 23 24 25 26 27 28 29 30 31 32 33 34 35 36 37 38 39 40 41 42 43 44 45 46 47 48 49 50
000
ASUS43 KBIS 191910
RWRBIS

NWR BROADCAST TEXT
NATIONAL WEATHER SERVICE BISMARCK ND
100 PM CST FRI DEC 19 2014

NOTE: "FAIR" INDICATES FEW OR NO CLOUDS BELOW 12,000 FEET WITH NO
SIGNIFICANT WEATHER AND/OR OBSTRUCTIONS TO VISIBILITY.


CITY           SKY/WX    TMP DP  RH WIND       PRES   REMARKS
WILLISTON      CLOUDY    24  22  91 SW3       29.92S FOG
MINOT          CLOUDY    27  25  92 VRB6      29.92F FOG
MINOT AFB      CLOUDY    27  27 100 N1        29.92F
BISMARCK       MOSUNNY   30  25  81 CALM      29.93F
DICKINSON      MOSUNNY   42  29  59 SW8       29.88F
GARRISON         N/A     26  25  96 NW3       29.91F
HETTINGER ARPT MOSUNNY   38  26  62 W9        29.92F
JAMESTOWN      CLOUDY    29  26  89 S9        29.95F
BEACH          FAIR      39  27  60 SW7       29.91F
CARRINGTON     FAIR      28  28 100 MISG      29.95F
CROSBY         FOG       23  23 100 NW3       29.92F VSB 1/2
HARVEY         FOG       25  25 100 CALM      29.93F VSB 1/2
HAZEN          FAIR      32  27  80 W5        29.92F
LINTON         FAIR      32  30  93 S7        29.93F
MANDAN         FAIR      36  28  75 NW7       29.92F
OAKES            N/A     28  28 100 S17       29.98F FOG     WCI  16
RUGBY          CLOUDY    27  27 100 CALM      29.93F
STANLEY        FOG       25  25 100 W7        29.89F VSB 1/4 WCI  17
TIOGA          FOG       23  23 100 CALM      29.92F VSB 1/4
WATFORD CITY   FAIR      32  32 100 W7        29.89F
$$

CITY           SKY/WX    TMP DP  RH WIND       PRES   REMARKS
GRAND FORKS    CLOUDY    27  26  96 S9        30.03F FOG     WCI  18
GRAND FORKS AF NOT AVBL
DEVILS LAKE    CLOUDY    27  19  74 S7        29.93F WCI  19
FARGO          CLOUDY    30  26  85 S13       30.04F FOG     WCI  20
CANDO          CLOUDY    27  27 100 S3        29.95F FOG
CAVALIER       FOG       27  25  93 S8        30.02F VSB 1   WCI  18
GWINNER        CLOUDY    32  32 100 MISG      30.01F
LANGDON        FOG       27  25  93 N5        29.95F VSB 3/4
ROLLA          CLOUDY    27  27 100 CALM      29.93F FOG
WALHALLA         N/A     27  27 100 S9        30.00F FOG     WCI  17
$$

CITY           SKY/WX    TMP DP  RH WIND       PRES   REMARKS
ABERDEEN       CLOUDY    31  27  85 S17       30.01F FOG     WCI  19
MOBRIDGE       MOSUNNY   32  27  81 S7        29.93F
BUFFALO          N/A     40  23  50 W12       29.85F
RAPID CITY     MOSUNNY   50  20  30 CALM      29.94F
GLASGOW        SUNNY     33  26  75 CALM      29.89F
SIDNEY         SUNNY     36  28  75 S7        29.93F
WOLF POINT     SUNNY     32  27  81 SW3       29.91F
GLENDIVE       SUNNY     39  27  60 S8        29.92F
MILES CITY     SUNNY     39  26  59 SW5       29.91F
BAKER          SUNNY     42  24  49 W14       29.92F
$$

CITY           SKY/WX    TMP DP  RH WIND       PRES   REMARKS
BILLINGS       PTSUNNY   37  21  52 SW14      29.91F
GREAT FALLS    CLOUDY    42  28  57 SW14      29.81F
REGINA         LGT SNOW  16  16 100 CALM      29.92S VSB 1
ESTEVAN        FOG       23  21  93 SW5       29.91F VSB 1/4 WCI  17
$$



USA.gov is the U.S. government's official web portal to all federal, state and local government web resources and services.